64P/Swift-Gehrels (2018)

Japanese version
Home page
Updated on April 4, 2021

---------------------------------------------------------------------

* Profile

* Pictures

* Orbital Elements

Epoch 2018 Nov. 18.0 TT = JDT 2458440.5                                         
T 2018 Nov. 3.89382 TT                                  Rudenko                 
q   1.3931874            (2000.0)            P               Q                  
n   0.10470879     Peri.   97.15088     +0.78661813     -0.60256478             
a   4.4580740      Node   299.99720     +0.48711401     +0.73970155             
e   0.6874912      Incl.    8.94863     +0.37940988     +0.29959524             
P   9.41                                                                        
From 3579 observations 1981 July 31-2019 May 4, mean residual 0".5.             
     Nongravitational parameters A1 = +0.21, A2 = +0.0465.                      

* Finding Charts

* Magnitudes Graph

        m1 = 13.0 + 5 log d + 15.0 log r          [   ,-82]  (             - 2018 Aug. 13)
        m1 =  6.0 + 5 log d + 27.0 log r(t - 40)  [-82,   ]  (2018 Aug. 13 -             )

---------------------------------------------------------------------

The orbital elements are published on M.P.E.C. 2021-F20.
The charts are made with StellaNavigator Ver.8 (AstroArts).
The magnitudes graphs are made with Comet for Windows.

---------------------------------------------------------------------

Copyright(C) Seiichi Yoshida (comet@aerith.net). All rights reserved.